• In India
  • List of Countries
  • For 7 days
  • Water Temperature
  • Satellite Maps
  • Weather Map
  • Weather Widgets
  • user-avatar
    Login

    Hourly Weather Zaluzhzhya

    Today, 21 November, Wednesday

    Time Temperature Precipitation Wind Pressure Humidity
    00:00 -5°C° 0 mm 4 mps 744 mmHg 88%
    01:00 -5°C° 0 mm 4 mps 744 mmHg 88%
    02:00 -4°C° 0 mm 3 mps 745 mmHg 86%
    03:00 -4°C° 0 mm 3 mps 744 mmHg 86%
    04:00 -4°C° 0 mm 4 mps 744 mmHg 85%
    05:00 -4°C° 0 mm 4 mps 744 mmHg 84%
    06:00 -4°C° 0 mm 4 mps 744 mmHg 85%
    07:00 -4°C° 0 mm 4 mps 744 mmHg 85%
    08:00 -4°C° 0 mm 4 mps 744 mmHg 85%
    09:00 -3°C° 0 mm 4 mps 744 mmHg 82%
    10:00 -3°C° 0 mm 4 mps 744 mmHg 80%
    11:00 -2°C° 0 mm 4 mps 744 mmHg 77%
    12:00 -2°C° 0 mm 4 mps 744 mmHg 76%
    13:00 -2°C° 0 mm 4 mps 744 mmHg 75%
    14:00 -2°C° 0 mm 4 mps 744 mmHg 73%
    15:00 -2°C° 0 mm 4 mps 744 mmHg 77%
    16:00 -2°C° 0 mm 3 mps 744 mmHg 81%
    17:00 -4°C° 0 mm 3 mps 744 mmHg 85%
    18:00 -4°C° 0 mm 3 mps 744 mmHg 86%
    19:00 -5°C° 0 mm 3 mps 744 mmHg 87%
    20:00 -5°C° 0 mm 3 mps 745 mmHg 88%
    21:00 -4°C° 0 mm 2 mps 745 mmHg 89%
    22:00 -4°C° 0 mm 2 mps 745 mmHg 89%
    23:00 -4°C° 0 mm 2 mps 745 mmHg 89%

    Tomorrow, 22 November, Thursday

    Time Temperature Precipitation Wind Pressure Humidity
    00:00 -4°C° 0 mm 2 mps 745 mmHg 89%
    01:00 -5°C° 0 mm 2 mps 745 mmHg 89%
    02:00 -5°C° 0 mm 2 mps 745 mmHg 89%
    03:00 -3°C° 0 mm 1 mps 745 mmHg 88%
    04:00 -3°C° 0 mm 1 mps 745 mmHg 88%
    05:00 -3°C° 0 mm 1 mps 745 mmHg 88%
    06:00 -3°C° 0 mm 1 mps 745 mmHg 88%
    07:00 -3°C° 0 mm 1 mps 745 mmHg 88%
    08:00 -3°C° 0 mm 1 mps 745 mmHg 88%
    09:00 -2°C° 0 mm 1 mps 745 mmHg 81%
    10:00 -1°C° 0 mm 1 mps 746 mmHg 75%
    11:00 0°C° 0 mm 1 mps 746 mmHg 69%
    12:00 +1°C° 0 mm 1 mps 745 mmHg 66%
    13:00 +1°C° 0 mm 1 mps 745 mmHg 63%
    14:00 +2°C° 0 mm 1 mps 745 mmHg 60%
    15:00 +1°C° 0 mm 1 mps 745 mmHg 64%
    16:00 0°C° 0 mm 1 mps 745 mmHg 69%
    17:00 -1°C° 0 mm 1 mps 745 mmHg 74%
    18:00 -1°C° 0 mm 1 mps 745 mmHg 75%
    19:00 -2°C° 0 mm 1 mps 745 mmHg 76%
    20:00 -2°C° 0 mm 1 mps 745 mmHg 77%
    21:00 -2°C° 0 mm 1 mps 745 mmHg 77%
    22:00 -2°C° 0 mm 1 mps 746 mmHg 78%
    23:00 -2°C° 0 mm 1 mps 746 mmHg 78%

    Day after tomorrow, 23 November, Friday

    Time Temperature Precipitation Wind Pressure Humidity
    00:00 -2°C° 0 mm 1 mps 746 mmHg 78%
    01:00 -2°C° 0 mm 1 mps 746 mmHg 79%
    02:00 -2°C° 0 mm 1 mps 746 mmHg 79%
    03:00 -2°C° 0 mm 1 mps 746 mmHg 80%
    04:00 -2°C° 0 mm 1 mps 746 mmHg 80%
    05:00 -3°C° 0 mm 1 mps 746 mmHg 80%
    06:00 -3°C° 0 mm 1 mps 746 mmHg 81%
    07:00 -3°C° 0 mm 1 mps 746 mmHg 81%
    08:00 -3°C° 0 mm 1 mps 746 mmHg 82%
    09:00 -2°C° 0 mm 1 mps 747 mmHg 75%
    10:00 -1°C° 0 mm 1 mps 747 mmHg 69%
    11:00 +1°C° 0 mm 1 mps 747 mmHg 63%
    12:00 +1°C° 0 mm 1 mps 747 mmHg 60%
    13:00 +2°C° 0 mm 1 mps 747 mmHg 58%
    14:00 +2°C° 0 mm 1 mps 747 mmHg 55%
    15:00 +1°C° 0 mm 1 mps 747 mmHg 60%
    16:00 -2°C° 0 mm 2 mps 747 mmHg 65%
    17:00 -3°C° 0 mm 2 mps 746 mmHg 70%
    18:00 -3°C° 0 mm 2 mps 746 mmHg 72%
    19:00 -3°C° 0 mm 2 mps 746 mmHg 74%
    20:00 -4°C° 0 mm 3 mps 746 mmHg 75%
    21:00 -4°C° 0 mm 3 mps 746 mmHg 75%
    22:00 -4°C° 0 mm 3 mps 746 mmHg 75%
    23:00 -5°C° 0 mm 3 mps 746 mmHg 75%

    24 November, Saturday

    Time Temperature Precipitation Wind Pressure Humidity
    00:00 -5°C° 0 mm 3 mps 745 mmHg 74%
    01:00 -5°C° 0 mm 4 mps 745 mmHg 73%
    02:00 -5°C° 0 mm 4 mps 745 mmHg 71%
    03:00 -5°C° 0 mm 4 mps 744 mmHg 71%
    04:00 -5°C° 0 mm 4 mps 744 mmHg 71%
    05:00 -5°C° 0 mm 3 mps 743 mmHg 71%
    06:00 -5°C° 0 mm 4 mps 743 mmHg 71%
    07:00 -5°C° 0 mm 4 mps 743 mmHg 72%
    08:00 -5°C° 0 mm 4 mps 742 mmHg 73%
    09:00 -4°C° 0 mm 4 mps 742 mmHg 70%
    10:00 -3°C° 0 mm 4 mps 742 mmHg 68%
    11:00 -2°C° 0 mm 4 mps 742 mmHg 65%
    12:00 -1°C° 0 mm 4 mps 741 mmHg 65%
    13:00 -1°C° 0 mm 4 mps 741 mmHg 66%
    14:00 0°C° 0 mm 4 mps 740 mmHg 66%
    15:00 -1°C° 0 mm 4 mps 740 mmHg 71%
    16:00 -1°C° 0 mm 3 mps 739 mmHg 77%
    17:00 -2°C° 0 mm 3 mps 739 mmHg 82%
    18:00 -2°C° 0 mm 3 mps 739 mmHg 83%
    19:00 -3°C° 0 mm 4 mps 738 mmHg 84%
    20:00 -3°C° 0 mm 4 mps 738 mmHg 85%
    21:00 -2°C° 0 mm 3 mps 738 mmHg 85%
    22:00 -1°C° 0 mm 3 mps 738 mmHg 84%
    23:00 -1°C° 0 mm 3 mps 738 mmHg 84%

    25 November, Sunday

    Time Temperature Precipitation Wind Pressure Humidity
    00:00 -1°C° 0 mm 3 mps 737 mmHg 85%
    01:00 -1°C° 0 mm 3 mps 737 mmHg 85%
    02:00 -1°C° 0 mm 3 mps 736 mmHg 86%
    03:00 -1°C° 0.1 mm 3 mps 736 mmHg 87%
    04:00 0°C° 0.1 mm 3 mps 736 mmHg 88%
    05:00 0°C° 0.1 mm 3 mps 736 mmHg 89%
    06:00 0°C° 0.3 mm 3 mps 735 mmHg 90%
    07:00 0°C° 0.3 mm 3 mps 735 mmHg 92%
    08:00 +1°C° 0.3 mm 2 mps 735 mmHg 93%
    09:00 +1°C° 0.2 mm 3 mps 735 mmHg 93%
    10:00 +2°C° 0.2 mm 3 mps 735 mmHg 92%
    11:00 +3°C° 0.2 mm 3 mps 735 mmHg 92%
    12:00 +3°C° 0.1 mm 3 mps 735 mmHg 92%
    13:00 +3°C° 0.1 mm 3 mps 735 mmHg 92%
    14:00 +4°C° 0.1 mm 2 mps 735 mmHg 92%
    15:00 +3°C° 0.1 mm 2 mps 735 mmHg 93%
    16:00 +2°C° 0.1 mm 2 mps 735 mmHg 94%
    17:00 +2°C° 0.1 mm 2 mps 735 mmHg 96%
    18:00 +2°C° 0 mm 2 mps 735 mmHg 96%
    19:00 +2°C° 0 mm 2 mps 735 mmHg 96%
    20:00 +1°C° 0 mm 2 mps 735 mmHg 96%
    21:00 +1°C° 0 mm 2 mps 735 mmHg 96%
    22:00 +1°C° 0 mm 2 mps 735 mmHg 96%
    23:00 +2°C° 0 mm 1 mps 735 mmHg 96%

    26 November, Monday

    Time Temperature Precipitation Wind Pressure Humidity
    00:00 +1°C° 0 mm 2 mps 735 mmHg 96%
    01:00 +1°C° 0 mm 2 mps 735 mmHg 96%
    02:00 -1°C° 0 mm 2 mps 735 mmHg 96%
    03:00 -1°C° 0 mm 2 mps 735 mmHg 95%
    04:00 -1°C° 0 mm 2 mps 735 mmHg 95%
    05:00 -1°C° 0 mm 2 mps 735 mmHg 95%
    06:00 -1°C° 0 mm 2 mps 735 mmHg 95%
    07:00 -1°C° 0 mm 2 mps 735 mmHg 94%
    08:00 -1°C° 0 mm 2 mps 735 mmHg 94%
    09:00 +1°C° 0 mm 2 mps 735 mmHg 90%
    10:00 +1°C° 0 mm 2 mps 735 mmHg 87%
    11:00 +1°C° 0 mm 2 mps 736 mmHg 83%
    12:00 0°C° 0 mm 3 mps 736 mmHg 80%
    13:00 0°C° 0 mm 3 mps 735 mmHg 77%
    14:00 0°C° 0 mm 3 mps 735 mmHg 74%
    15:00 -1°C° 0 mm 3 mps 736 mmHg 76%
    16:00 -1°C° 0 mm 3 mps 736 mmHg 78%
    17:00 -2°C° 0 mm 2 mps 736 mmHg 80%
    18:00 -4°C° 0 mm 3 mps 736 mmHg 81%
    19:00 -4°C° 0 mm 3 mps 736 mmHg 82%
    20:00 -5°C° 0 mm 3 mps 737 mmHg 83%
    21:00 -5°C° 0 mm 3 mps 737 mmHg 83%
    22:00 -4°C° 0 mm 2 mps 737 mmHg 83%
    23:00 -5°C° 0 mm 2 mps 737 mmHg 83%
    Show more